This is the latest recevied weather packets stored in our database for station/object KN6ZYR. If no packets are shown the sender has not sent any weather packets the latest 10 day(s).
| Time | Temp. | Humidity | Pressure | Rain* | Wind** | Luminosity | Snow |
|---|---|---|---|---|---|---|---|
| 1777704397 | 12.78° C | 34% | 1021.3 hPa | 0 mm | - | 0 W/m² | - |
| 1777704094 | 12.78° C | 35% | 1021 hPa | 0 mm | - | 0 W/m² | - |
| 1777703792 | 13.33° C | 33% | 1021.3 hPa | 0 mm | - | 0 W/m² | - |
| 1777703489 | 13.89° C | 33% | 1020.9 hPa | 0 mm | - | 0 W/m² | - |
| 1777703186 | 13.89° C | 32% | 1021.3 hPa | 0 mm | - | 0 W/m² | - |
| 1777702884 | 13.89° C | 31% | 1021.2 hPa | 0 mm | - | 0 W/m² | - |
| 1777702582 | 13.89° C | 30% | 1021 hPa | 0 mm | - | 0 W/m² | - |
| 1777702279 | 13.89° C | 31% | 1021.2 hPa | 0 mm | - | 0 W/m² | - |
| 1777701979 | 13.89° C | 31% | 1021.5 hPa | 0 mm | - | 0 W/m² | - |
| 1777701676 | 14.44° C | 31% | 1021.3 hPa | 0 mm | - | 0 W/m² | - |
| 1777701374 | 15° C | 28% | 1021 hPa | 0 mm | - | 0 W/m² | - |
| 1777701072 | 15° C | 27% | 1021 hPa | 0 mm | - | 0 W/m² | - |
| 1777700770 | 15° C | 27% | 1021.2 hPa | 0 mm | - | 0 W/m² | - |
| 1777700467 | 15° C | 27% | 1021.3 hPa | 0 mm | - | 0 W/m² | - |
| 1777700164 | 15° C | 27% | 1021.4 hPa | 0 mm | - | 0 W/m² | - |
| 1777699862 | 15° C | 27% | 1021.2 hPa | 0 mm | - | 0 W/m² | - |
| 1777699560 | 15° C | 27% | 1021.3 hPa | 0 mm | - | 0 W/m² | - |
| 1777699258 | 15° C | 27% | 1020.9 hPa | 0 mm | - | 0 W/m² | - |
| 1777698956 | 15° C | 27% | 1021 hPa | 0 mm | - | 0 W/m² | - |
| 1777698653 | 15° C | 28% | 1020.7 hPa | 0 mm | - | 0 W/m² | - |
| 1777698349 | 15° C | 27% | 1020.7 hPa | 0 mm | - | 0 W/m² | - |
| 1777698046 | 15° C | 29% | 1020.6 hPa | 0 mm | - | 0 W/m² | - |
| 1777697743 | 15° C | 29% | 1020.7 hPa | 0 mm | - | 0 W/m² | - |
| 1777697440 | 15° C | 27% | 1020.7 hPa | 0 mm | - | 0 W/m² | - |
| 1777697136 | 14.44° C | 30% | 1020.6 hPa | 0 mm | - | 0 W/m² | - |
* Rain latest hour (hover to see other rain measurements)
** Current wind speed in m/s (hover to see current wind gust speed)